カタログに戻る

STARLINK-3770

運用中通信VLEO
NORAD 52554·PAYLOAD·🇺🇸 United States

打ち上げ May 13, 2022 から Vandenberg Space Force Base

Loading…

次のパス (今後24時間)

TLE

最新Source: CelesTrak SupGP

元期: Sep 15, 2026, 02:00 UTC

1 52554C 22051X   26258.08381944  .00028547  00000+0  91808-3 0  2583
2 52554  53.1616 358.9870 0000950  88.4452 289.1108 15.31685214    16

AllMySatでSTARLINK-3770をリアルタイム追跡

Download on the App Store